Regional Weather Roundup
Issued by NWS Northern Indiana

Home | Current Version | Previous Version | Graphics & Text | Print | Product List | Glossary On
Versions: 1 2 3 4 5 6 7 8 9 10 11 12 13 14 15 16 17 18 19 20 21 22 23 24 25 26 27 28 29 30 31 32 33 34 35 36 37 38 39 40 41 42 43 44 45 46 47 48 49 50
000
ASUS43 KIWX 041010
RWRIWX

KIWX WEATHER ROUNDUP
NATIONAL WEATHER SERVICE NORTHERN INDIANA
500 AM EST SUN DEC 04 2016

NOTE: "FAIR" INDICATES FEW OR NO CLOUDS BELOW 12,000 FEET WITH NO
SIGNIFICANT WEATHER AND/OR OBSTRUCTIONS TO VISIBILITY.

* THESE STATIONS ARE NOT UNDER NWS QUALITY CONTROL. THEY ALSO MAY NOT
  REPORT WEATHER SUCH AS PRECIPITATION OR FOG.

INZ001>027-041100-
NORTHERN INDIANA

CITY           SKY/WX    TMP DP  RH WIND       PRES   REMARKS
VALPARAISO     CLOUDY    31  27  85 NE3       30.22F
MICHIGAN CITY* CLOUDY    32  28  86 CALM      30.23F
LAPORTE*       MOCLDY    32  32 100 CALM      30.22F
KNOX*          CLOUDY    30  16  55 CALM      30.22S
SOUTH BEND     MOCLDY    31  26  82 E5        30.23F WCI  26
GOSHEN         CLOUDY    32  26  78 E3        30.22F
MONTICELLO*    CLOUDY    32  25  74 E5        30.20F WCI  27
LOGANSPORT*    CLOUDY    32  27  80 E3        30.21F
ROCHESTER*     MOCLDY    32  32 100 CALM      30.21F
WARSAW*        MOCLDY    30  27  86 CALM      30.22F
ANGOLA*        CLOUDY    30  28  93 CALM      30.21F
FORT WAYNE     CLOUDY    32  27  81 E6        30.22F WCI  26
HUNTINGTON*    CLOUDY    32  28  86 E3        30.21F
PERU/GRISSOM   CLOUDY    31  27  84 E6        30.18F WCI  26
MARION*        CLOUDY    31  29  92 E5        30.21F WCI  27

$$
INZ028>050-041100-
CENTRAL INDIANA

CITY           SKY/WX    TMP DP  RH WIND       PRES   REMARKS
LAFAYETTE      CLOUDY    33  28  81 E7        30.21F WCI  27
KOKOMO*        MOCLDY    31  29  92 E6        30.21F WCI  25
MUNCIE*        CLOUDY    33  29  85 E3        30.20F
INDIANAPOLIS   CLOUDY    34  27  75 E7        30.19F WCI  28

$$
MIZ043>046-050>051-056>058-064>065-071>073-077>080-041100-
SOUTHWEST LOWER MICHIGAN

CITY           SKY/WX    TMP DP  RH WIND       PRES   REMARKS
BATTLE CREEK   CLOUDY    33  28  81 SE5       30.22F WCI  29
BENTON HARBOR  CLOUDY    34  25  69 S6        30.22F WCI  29
COLDWATER*     CLOUDY    32  27  84 CALM      30.22F
HILLSDALE*     CLOUDY    32  27  80 CALM      30.21F
HOLLAND        CLOUDY    34  27  75 S6        30.22F WCI  29
GRAND RAPIDS   CLOUDY    34  27  75 S5        30.24S WCI  30
KALAMAZOO      CLOUDY    33  26  75 CALM      30.22F
STURGIS*       CLOUDY    32  28  84 CALM      30.21F
THREE RIVERS*  MOCLDY    32  28  86 CALM      30.23F

$$
OHZ001>008-015>018-024>025-041100-
NORTHWEST OHIO

CITY           SKY/WX    TMP DP  RH WIND       PRES   REMARKS
WAUSEON*       CLOUDY    32  27  80 CALM      30.25S
DEFIANCE       CLOUDY    34  28  79 CALM      30.25F
FINDLAY        CLOUDY    34  26  72 CALM      30.25S
TOLEDO EXPRESS CLOUDY    33  27  78 SW3       30.26S
TOLEDO METCALF MOCLDY    34  29  82 S5        30.27F WCI  30
LIMA           CLOUDY    33  28  81 E7        30.23S WCI  27

$$
AND FOR LAKE MICHIGAN COASTAL AND OPEN LAKE BUOY OBSERVATIONS

STATION/POSITION TEMP    WIND        PRES    VSBY  WAVE
                 AIR SEA DIR/SP/G                  HT/PER
                 (F)     (DEG/KT/KT) (MB)    (MI)  (FT/S)
CALUMET HARBOR    32     200/  2/  3 1022.6F
MICHIGAN CITY     33     140/  5/  6   N/A
BURNS HARBOR      33     180/  5/  7 1024.0F
SAINT JOSEPH      34     170/  2/  5 1023.7
SOUTH LAKE BUOY   36 48   CALM  /  2 1023.4F         0

$$
&&



USA.gov is the U.S. government's official web portal to all federal, state and local government web resources and services.